• Join FlightAware (Why Join?)
  • Login
  • US Flag GB Flag 
14:13 EDT


 

Airport Tracker/Info


-or-


 

Live Flight TrackerFlight Track Log ✈ N77VZ ✈ 19-May-2014 ✈ KBTV - KCAE

Flight Track Log - Related Links

Times and Time Zones

All times are in EDT time to prevent confusion due to time zone crossing. See the N77VZ flight status page for this flight to view local times or setup timezone preferences in your user account.

Time Position Orientation Groundspeed Altitude Reporting Facility
EDT Latitude Longitude Course Direction KTS MPH feet Rate Location/Type
06:08 44.4725 -73.2636 184° South 212 244 6,600  Level Boston Center
06:09 44.4067 -73.2717 185° South 222 255 10,000 3,060 Climbing Boston Center
06:10 44.3400 -73.2803 185° South 238 274 12,900 2,820 Climbing Boston Center
06:11 44.2711 -73.2850 183° South 246 283 15,800 2,760 Climbing Boston Center
06:12 44.2003 -73.2992 188° South 259 298 18,400 2,400 Climbing Boston Center
06:13 43.9265 -73.2140 184° South  Level FlightAware Approximate
06:13 44.1344 -73.3283 198° South 265 305 20,700  Level Boston Center
06:14 44.0583 -73.3572 195° South 278 320 23,200 2,400 Climbing Boston Center
06:15 43.9811 -73.3856 195° South 285 328 25,500 2,220 Climbing Boston Center
06:16 43.9031 -73.4142 195° South 287 330 27,700 2,040 Climbing Boston Center
06:17 43.8067 -73.4508 195° South 299 344 29,700 1,680 Climbing Boston Center
06:18 43.7206 -73.4836 195° South 318 366 31,200 1,260 Climbing Boston Center
06:19 43.6339 -73.5167 195° South 322 371 32,300 1,020 Climbing Boston Center
06:20 43.5456 -73.5494 195° South 327 376 33,300 1,140 Climbing Boston Center
06:21 43.4569 -73.5814 195° South 328 377 34,700 1,140 Climbing Boston Center
06:22 43.3694 -73.6156 196° South 328 377 35,600 840 Climbing Boston Center
06:23 43.2814 -73.6497 196° South 328 377 36,500 900 Climbing Boston Center
06:24 43.1936 -73.6800 194° South 329 379 37,500 720 Climbing Boston Center
06:25 43.1108 -73.7114 195° South 326 375 38,000 480 Climbing Boston Center
06:26 43.0219 -73.7456 196° South 326 375 38,500 480 Climbing Boston Center
06:27 42.9308 -73.7772 194° South 332 382 39,000 480 Climbing Boston Center
06:28 42.8389 -73.8122 196° South 332 382 39,500 480 Climbing Boston Center
06:29 42.7503 -73.8450 195° South 332 382 40,000 240 Climbing Boston Center
06:30 42.6600 -73.8775 195° South 332 382 40,000  Level Boston Center
06:31 42.5686 -73.9114 195° South 336 387 40,000  Level Boston Center
06:32 42.4750 -73.9453 195° South 343 395 40,000  Level Boston Center
06:33 42.3797 -73.9792 195° South 352 405 40,000  Level Boston Center
06:34 42.2856 -74.0136 195° South 352 405 40,000  Level Boston Center
06:35 42.1708 -74.0483 193° South 352 405 40,000  Level Boston Center
06:36 42.0736 -74.0736 191° South 352 405 40,000  Level Boston Center
06:37 41.9756 -74.1003 191° South 354 407 40,000  Level Boston Center
06:38 41.8756 -74.1242 190° South 362 417 40,000  Level Boston Center
06:40 41.7761 -74.1500 191° South 362 417 40,000  Level Boston Center
06:40 41.6719 -74.1764 191° South 364 419 40,000  Level Boston Center
06:42 41.5722 -74.2025 191° South 364 419 40,000  Level Boston Center
06:43 41.4719 -74.2278 191° South 365 420 40,000  Level Boston Center
06:44 41.3714 -74.2542 191° South 366 421 40,000  Level Boston Center
06:44 41.3308 -74.2633 190° South 364 419 40,000  Level New York Center
06:45 41.2194 -74.2906 190° South 369 425 40,000  Level New York Center
06:46 41.1267 -74.3353 200° South 369 425 40,000  Level New York Center
06:47 41.0569 -74.4336 227° Southwest 356 410 40,000  Level New York Center
06:48 40.9875 -74.5206 223° Southwest 356 410 40,000  Level New York Center
06:49 40.9225 -74.6019 223° Southwest 356 410 40,000  Level New York Center
06:50 40.8528 -74.6942 225° Southwest 356 410 40,000  Level New York Center
06:51 40.7808 -74.7831 223° Southwest 356 410 40,000  Level New York Center
06:52 40.7092 -74.8719 223° Southwest 356 410 40,000  Level New York Center
06:53 40.6372 -74.9606 223° Southwest 356 410 40,000  Level New York Center
06:54 40.5653 -75.0492 223° Southwest 356 410 40,000  Level New York Center
06:55 40.4931 -75.1428 225° Southwest 356 410 40,000  Level New York Center
06:56 40.4189 -75.2336 223° Southwest 356 410 40,000  Level New York Center
06:57 40.3467 -75.3242 224° Southwest 361 415 40,000  Level New York Center
06:58 40.2742 -75.4147 224° Southwest 361 415 40,000  Level New York Center
06:59 40.1978 -75.5047 222° Southwest 366 421 40,000  Level New York Center
07:00 40.1253 -75.5947 224° Southwest 366 421 40,000  Level New York Center
07:01 40.0508 -75.6844 223° Southwest 366 421 40,000  Level New York Center
07:02 39.9781 -75.7769 224° Southwest 373 429 40,000  Level New York Center
07:03 39.9011 -75.8689 223° Southwest 373 429 40,000  Level New York Center
07:05 39.7803 -76.0078 221° Southwest 369 425 40,000  Level Washington Center
07:06 39.7058 -76.0986 223° Southwest 369 425 40,000  Level Washington Center
07:07 39.6289 -76.1864 221° Southwest 369 425 40,000  Level Washington Center
07:08 39.5392 -76.2947 223° Southwest 369 425 40,000  Level Washington Center
07:09 39.4625 -76.3864 223° Southwest 369 425 40,000  Level Washington Center
07:10 39.4003 -76.4847 231° Southwest 363 418 40,000  Level Washington Center
07:11 39.3350 -76.5889 231° Southwest 363 418 40,000  Level Washington Center
07:12 39.2703 -76.6897 230° Southwest 364 419 40,000  Level Washington Center
07:13 39.2067 -76.7917 231° Southwest 364 419 40,000  Level Washington Center
07:14 39.1417 -76.8911 230° Southwest 364 419 40,000  Level Washington Center
07:15 39.0639 -77.0100 230° Southwest 361 415 40,000  Level Washington Center
07:16 38.9906 -77.0989 223° Southwest 361 415 40,000  Level Washington Center
07:17 38.9122 -77.1836 220° Southwest 363 418 40,000  Level Washington Center
07:18 38.8350 -77.2675 220° Southwest 363 418 40,000  Level Washington Center
07:19 38.7575 -77.3525 221° Southwest 362 417 40,000  Level Washington Center
07:20 38.6794 -77.4386 221° Southwest 363 418 40,000  Level Washington Center
07:21 38.6006 -77.5233 220° Southwest 364 419 40,000  Level Washington Center
07:22 38.5217 -77.6078 220° Southwest 365 420 40,000  Level Washington Center
07:23 38.4281 -77.7097 220° Southwest 365 420 40,000  Level Washington Center
07:24 38.3492 -77.7950 220° Southwest 366 421 40,000  Level Washington Center
07:25 38.2714 -77.8789 220° Southwest 366 421 40,000  Level Washington Center
07:26 38.1925 -77.9636 220° Southwest 366 421 40,000  Level Washington Center
07:27 38.1139 -78.0464 220° Southwest 367 422 40,000  Level Washington Center
07:28 38.0372 -78.1292 220° Southwest 364 419 40,000  Level Washington Center
07:29 37.9506 -78.2131 217° Southwest 360 414 40,000  Level Washington Center
07:30 37.8761 -78.2850 217° Southwest 352 405 40,000  Level Washington Center
07:31 37.7858 -78.3700 217° Southwest 349 402 40,000  Level Washington Center
07:33 37.7117 -78.4411 217° Southwest 347 399 40,000  Level Washington Center
07:34 37.6372 -78.5111 217° Southwest 346 398 40,000  Level Washington Center
07:35 37.5497 -78.5947 217° Southwest 339 390 40,000  Level Washington Center
07:36 37.4767 -78.6628 216° Southwest 338 389 40,000  Level Washington Center
07:37 37.4044 -78.7314 217° Southwest 335 386 40,000  Level Washington Center
07:38 37.3317 -78.7986 216° Southwest 334 384 40,000  Level Washington Center
07:39 37.2450 -78.8800 217° Southwest 334 384 40,000  Level Washington Center
07:40 37.1722 -78.9467 216° Southwest 333 383 40,000  Level Washington Center
07:41 37.1006 -79.0139 217° Southwest 333 383 40,000  Level Washington Center
07:42 37.0136 -79.0953 217° Southwest 332 382 40,000 -240 Level Washington Center
07:43 36.9400 -79.1625 216° Southwest 332 382 39,500 -720 Descending Washington Center
07:44 36.8669 -79.2308 217° Southwest 334 384 38,600 -960 Descending Washington Center
07:45 36.7964 -79.2944 216° Southwest 327 376 37,600 -1,200 Descending Washington Center
07:46 36.7122 -79.3719 216° Southwest 325 374 36,200 -1,200 Descending Washington Center
07:47 36.6397 -79.4381 216° Southwest 325 374 35,100 -1,140 Descending Washington Center
07:48 36.5675 -79.5050 217° Southwest 328 377 33,900 -1,260 Descending Washington Center
07:49 36.4808 -79.5856 217° Southwest 329 379 32,500 -1,260 Descending Washington Center
07:50 36.4067 -79.6519 216° Southwest 333 383 31,400 -1,140 Descending Washington Center
07:51 36.3183 -79.7253 214° Southwest 332 382 30,100 -660 Descending Atlanta Center
07:52 36.2456 -79.7936 217° Southwest 327 376 30,000 -60 Descending Atlanta Center
07:53 36.1747 -79.8564 216° Southwest 327 376 30,000  Level Atlanta Center
07:54 36.1058 -79.9192 216° Southwest 327 376 30,000 -60 Level Atlanta Center
07:55 36.0289 -79.9819 213° Southwest 322 371 29,900 -600 Descending Atlanta Center
07:56 35.9467 -80.0244 203° Southwest 317 365 28,900 -1,020 Descending Atlanta Center
07:57 35.8708 -80.0617 202° Southwest 317 365 27,900 -1,020 Descending Atlanta Center
07:58 35.7947 -80.1011 203° Southwest 306 352 26,900 -960 Descending Atlanta Center
07:59 35.7292 -80.1325 201° Southwest 298 343 26,000 -960 Descending Atlanta Center
08:00 35.6553 -80.1744 205° Southwest 292 336 25,000 -960 Descending Atlanta Center
08:01 35.5814 -80.2086 201° Southwest 292 336 24,100 -540 Descending Atlanta Center
08:02 35.5094 -80.2450 202° Southwest 292 336 24,000 -120 Descending Atlanta Center
08:03 35.4356 -80.2842 203° Southwest 292 336 23,900 -420 Descending Atlanta Center
08:04 35.3614 -80.3206 202° Southwest 292 336 23,200 -900 Descending Atlanta Center
08:05 35.2917 -80.3569 203° Southwest 287 330 22,200 -1,080 Descending Atlanta Center
08:06 35.2197 -80.3906 201° Southwest 287 330 21,100 -1,080 Descending Atlanta Center
08:07 35.1456 -80.4269 202° Southwest 287 330 20,100 -1,080 Descending Atlanta Center
08:08 35.0736 -80.4631 202° Southwest 287 330 19,000 -1,080 Descending Atlanta Center
08:09 35.0017 -80.4989 202° Southwest 287 330 18,000 -1,020 Descending Atlanta Center
08:10 34.9275 -80.5350 202° Southwest 287 330 17,000 -780 Descending Atlanta Center
08:11 34.8617 -80.5683 203° Southwest 280 322 16,500 -660 Descending Atlanta Center
08:14 34.7156 -80.6447 203° Southwest 248 285 14,900 -480 Descending Jacksonville Center
08:15 34.6556 -80.6664 197° South 248 285 14,900 -60 Level Jacksonville Center
08:16 34.5914 -80.7008 204° Southwest 242 278 14,800 -600 Descending Jacksonville Center
08:17 34.5314 -80.7328 204° Southwest 248 285 13,700 -1,200 Descending Jacksonville Center
08:18 34.4947 -80.7889 232° Southwest 232 267 12,500 -1,080 Descending Jacksonville Center
08:19 34.4581 -80.8378 228° Southwest 215 247 11,600 -900 Descending Jacksonville Center
08:20 34.4236 -80.8914 232° Southwest 210 242 10,700 -900 Descending Jacksonville Center
08:21 34.3889 -80.9400 229° Southwest 205 236 9,900 -840 Descending Jacksonville Center
08:22 34.3519 -80.9936 230° Southwest 205 236 9,100 -840 Descending Jacksonville Center
08:23 34.3194 -81.0422 231° Southwest 205 236 8,300 -900 Descending Jacksonville Center
08:24 34.2828 -81.0983 232° Southwest 205 236 7,400 -900 Descending Jacksonville Center
08:26 34.1213 -81.0802 175° South  Level FlightAware Approximate
08:33 33.9333 -81.1167 328° Northwest  Level FlightAware Approximate
08:34 33.9388 -81.1195 328° Northwest  Level Estimated
08:35 33.9333 -81.1167 328° Northwest  Level FlightAware Approximate
08:36 33.9388 -81.1195 328° Northwest  Level Estimated
08:37 33.9333 -81.1167 328° Northwest  Level FlightAware Approximate
08:38 33.9388 -81.1195 328° Northwest  Level Estimated
08:39 33.9333 -81.1167 328° Northwest  Level FlightAware Approximate
08:40 33.9388 -81.1195 328° Northwest  Level Estimated
08:41 33.9333 -81.1167 328° Northwest  Level FlightAware Approximate
08:42 33.9388 -81.1195 328° Northwest  Level Estimated